This demonstration page uses our WeatherBlox Daily Observations layout. Learn more.

Left ArrowRight Arrow

Hourly Observations for January 23, 2022

Temp ( °F °C ) Dew Point ( °F °C ) Humidity (%) Winds ( mph kmh ) Pressure ( in mb ) Visibility ( mi km ) Precip ( " mm )
6:30 am 06:30 Cloudy 27 -3 18 -8 69 69 S 14 22 29.97 1015 10 16 N/A
6:45 am 06:45 Cloudy 27 -3 18 -8 69 69 SSW 14 22 29.97 1015 10 16 N/A
7:53 am 07:53 Cloudy 27 -3 18 -8 69 69 S 16 26 29.92 1013 10 16 N/A
8:45 am 08:45 Cloudy 28 -2 19 -7 69 69 S 9 15 29.90 1013 10 16 N/A
9:22 am 09:22 Cloudy with Light Snow 30 -1 21 -6 69 69 SW 17 28 29.90 1012 3 5 N/A
9:31 am 09:31 Cloudy with Light Snow 30 -1 23 -5 75 75 WSW 16 26 29.90 1012 2 3 N/A
9:47 am 09:47 Cloudy with Light Snow 30 -1 25 -4 80 80 SW 14 22 29.90 1012 2 2 N/A
10:09 am 10:09 Cloudy with Light Snow 28 -2 27 -3 93 93 SW 14 22 29.89 1012 6 10 N/A
10:45 am 10:45 Cloudy 30 -1 27 -3 86 86 SW 13 20 29.89 1012 8 13 N/A
11:45 am 11:45 Mostly Cloudy 34 1 27 -3 75 75 WSW 14 22 29.88 1012 10 16 N/A
12:47 pm 12:47 Mostly Cloudy 36 2 25 -4 65 65 W 9 15 29.86 1011 10 16 N/A
1:45 pm 13:45 Mostly Cloudy 32 0 21 -6 64 64 SW 17 28 29.91 1013 10 16 N/A
2:45 pm 14:45 Partly Cloudy 28 -2 19 -7 69 69 NNW 17 28 29.96 1015 10 16 N/A
3:45 pm 15:45 Partly Cloudy 28 -2 18 -8 64 64 NNW 16 26 29.98 1015 10 16 N/A
4:45 pm 16:45 Partly Cloudy 28 -2 16 -9 59 59 N 12 19 29.99 1016 10 16 N/A
5:45 pm 17:45 Partly Cloudy 27 -3 12 -11 54 54 NNW 12 19 30.01 1016 10 16 N/A
6:45 pm 18:45 Clear 27 -3 12 -11 54 54 N 9 15 30.03 1017 10 16 N/A
7:45 pm 19:45 Clear 25 -4 10 -12 54 54 N 7 11 30.06 1018 10 16 N/A
8:45 pm 20:45 Clear 23 -5 12 -11 63 63 NNE 5 7 30.06 1018 10 16 N/A
9:45 pm 21:45 Clear 19 -7 10 -12 68 68 NNE 3 6 30.07 1018 10 16 N/A

Powered by AerisWeather